Fergus Falls, MN

3:08 PM CST on December 09, 2019 (GMT -0600)
Fergus Falls Municipal-Mickelson

Weather History for KFFM - November, 2019

Change the Weather History Date:

Sunday, November 17, 2019

  Actual Average Record
Temperature  
Mean Temperature 34 °F -  
Max Temperature 39 °F 36 °F 70 °F (1953)
Min Temperature 30 °F 20 °F -6 °F (1959)
Degree Days  
Heating Degree Days 30    
Moisture  
Dew Point 27 °F    
Average Humidity 84    
Maximum Humidity 93    
Minimum Humidity 75    
Precipitation  
Precipitation 0.00 in - - ()
Sea Level Pressure  
Sea Level Pressure 29.90 in    
Wind  
Wind Speed 11 mph ()    
Max Wind Speed 20 mph    
Max Gust Speed 25 mph    
Visibility 10.0 miles    
Events Rain , Snow    
Averages and records for this station are not official NWS values.
T = Trace of Precipitation, MM = Missing Value Source: Averaged Metar Reports

Daily Weather History Graph

Daily Weather History Graph

Search for Another Location

Airport or City:

Astronomy

Nov. 17, 2019 Rise Set
Actual Time 7:28 AM CST 4:50 PM CST
Civil Twilight 6:55 AM CST 5:23 PM CST
Nautical Twilight 6:19 AM CST 5:59 PM CST
Astronomical Twilight 5:43 AM CST 6:35 PM CST
Moon 9:23 PM CST (11/17) 12:19 PM CST (11/17)
Length of Visible Light 10h 27m
Length of Day
9h 21m
Waning Gibbous, 73% of the Moon is Illuminated
Nov 17
Waning Gibbous
Nov 19
Last Quarter
Nov 26
New
Dec 4
First Quarter
Dec 11
Full

Hourly Weather History & Observations

Time (CST) Temp. Windchill Dew Point Humidity Pressure Visibility Wind Dir Wind Speed Gust Speed Precip Events Conditions
12:15 AM 39.2 °F 29.8 °F 33.8 °F 81% 29.92 in 10.0 mi NW 18.4 mph 25.3 mph N/A   Overcast
12:35 AM 37.4 °F 28.9 °F 32.0 °F 81% 29.92 in 10.0 mi NW 13.8 mph - N/A   Overcast
12:39 AM 37.4 °F 28.5 °F 32.0 °F 81% 29.92 in 10.0 mi NW 15.0 mph - N/A   Overcast
12:58 AM 37.4 °F 29.3 °F 32.0 °F 81% 29.92 in 10.0 mi NW 12.7 mph - N/A   Overcast
1:16 AM 37.4 °F 29.8 °F 32.0 °F 81% 29.91 in 10.0 mi NW 11.5 mph - N/A   Overcast
1:35 AM 37.4 °F 30.3 °F 32.0 °F 81% 29.91 in 10.0 mi NW 10.4 mph - N/A   Overcast
1:36 AM 37.4 °F 29.8 °F 32.0 °F 81% 29.91 in 10.0 mi NW 11.5 mph - N/A   Overcast
1:55 AM 35.6 °F 25.9 °F 30.2 °F 81% 29.91 in 10.0 mi NW 16.1 mph - N/A   Overcast
2:18 AM 35.6 °F 26.2 °F 30.2 °F 81% 29.91 in 10.0 mi NW 15.0 mph - N/A   Overcast
2:36 AM 35.6 °F 26.6 °F 30.2 °F 81% 29.92 in 10.0 mi NW 13.8 mph - N/A   Overcast
2:55 AM 35.6 °F 27.1 °F 30.2 °F 81% 29.92 in 10.0 mi NW 12.7 mph 17.3 mph N/A   Overcast
3:15 AM 35.6 °F 27.1 °F 30.2 °F 81% 29.93 in 10.0 mi NW 12.7 mph 18.4 mph N/A   Overcast
3:16 AM 35.6 °F 27.1 °F 30.2 °F 81% 29.93 in 10.0 mi NW 12.7 mph 18.4 mph N/A   Overcast
3:35 AM 33.8 °F 23.5 °F 28.4 °F 81% 29.93 in 10.0 mi NW 16.1 mph - N/A   Overcast
3:39 AM 33.8 °F 23.2 °F 28.4 °F 81% 29.93 in 10.0 mi NW 17.3 mph - N/A   Overcast
3:58 AM 33.8 °F 22.8 °F 28.4 °F 81% 29.94 in 7.0 mi NNW 18.4 mph 21.9 mph N/A Rain Rain
4:16 AM 33.8 °F 23.9 °F 28.4 °F 81% 29.93 in 10.0 mi NW 15.0 mph - N/A Snow Light Snow
4:35 AM 33.8 °F 25.3 °F 28.4 °F 81% 29.93 in 10.0 mi NW 11.5 mph - N/A   Overcast
4:55 AM 33.8 °F 25.8 °F 28.4 °F 81% 29.93 in 10.0 mi NW 10.4 mph - N/A   Overcast
5:19 AM 33.8 °F 26.4 °F 28.4 °F 81% 29.94 in 10.0 mi NW 9.2 mph - N/A   Overcast
5:36 AM 33.8 °F 25.3 °F 28.4 °F 81% 29.94 in 10.0 mi NW 11.5 mph - N/A   Overcast
5:55 AM 32.0 °F 20.8 °F 26.6 °F 80% 29.94 in 10.0 mi NNW 17.3 mph 23.0 mph N/A   Overcast
5:56 AM 32.0 °F 20.1 °F 26.6 °F 80% 29.94 in 10.0 mi NNW 19.6 mph 23.0 mph N/A   Overcast
6:15 AM 30.2 °F 19.3 °F 26.6 °F 86% 29.95 in 10.0 mi NW 15.0 mph - N/A   Overcast
6:16 AM 30.2 °F 20.2 °F 26.6 °F 86% 29.95 in 10.0 mi NW 12.7 mph - N/A   Overcast
6:38 AM 30.2 °F 19.8 °F 26.6 °F 86% 29.95 in 10.0 mi NNW 13.8 mph - N/A   Overcast
6:56 AM 30.2 °F 20.2 °F 26.6 °F 86% 29.96 in 10.0 mi NNW 12.7 mph 18.4 mph N/A   Overcast
7:16 AM 30.2 °F 20.2 °F 26.6 °F 86% 29.96 in 10.0 mi NNW 12.7 mph 17.3 mph N/A   Overcast
7:35 AM 30.2 °F 20.2 °F 26.6 °F 86% 29.96 in 10.0 mi NNW 12.7 mph 19.6 mph N/A   Overcast
7:36 AM 30.2 °F 20.2 °F 26.6 °F 86% 29.96 in 10.0 mi NNW 12.7 mph 19.6 mph N/A   Overcast
7:55 AM 30.2 °F 21.3 °F 26.6 °F 86% 29.96 in 10.0 mi NNW 10.4 mph - N/A   Overcast
8:35 AM 30.2 °F 19.8 °F 24.8 °F 80% 29.97 in 10.0 mi NNW 13.8 mph 20.7 mph N/A   Overcast
8:55 AM 30.2 °F 21.3 °F 26.6 °F 86% 29.97 in 10.0 mi NNW 10.4 mph - N/A   Overcast
9:15 AM 30.2 °F 20.2 °F 24.8 °F 80% 29.97 in 10.0 mi NW 12.7 mph 17.3 mph N/A   Overcast
9:19 AM 30.2 °F 18.5 °F 24.8 °F 80% 29.97 in 10.0 mi NW 17.3 mph - N/A   Overcast
9:56 AM 30.2 °F 18.9 °F 24.8 °F 80% 29.96 in 10.0 mi NNW 16.1 mph 19.6 mph N/A   Overcast
10:15 AM 30.2 °F 18.5 °F 24.8 °F 80% 29.97 in 10.0 mi NW 17.3 mph - N/A   Overcast
10:16 AM 30.2 °F 18.5 °F 24.8 °F 80% 29.97 in 10.0 mi NW 17.3 mph - N/A   Overcast
10:35 AM 30.2 °F 18.5 °F 24.8 °F 80% 29.97 in 10.0 mi NW 17.3 mph - N/A   Overcast
10:59 AM 30.2 °F 18.5 °F 24.8 °F 80% 29.97 in 10.0 mi NNW 17.3 mph 21.9 mph N/A   Overcast
11:16 AM 30.2 °F 20.8 °F 24.8 °F 80% 29.97 in 10.0 mi NNW 11.5 mph - N/A   Overcast
11:36 AM 30.2 °F 20.8 °F 24.8 °F 80% 29.96 in 10.0 mi NNW 11.5 mph 20.7 mph N/A   Overcast
12:15 PM 30.2 °F 20.2 °F 24.8 °F 80% 29.95 in 10.0 mi NNW 12.7 mph - N/A   Overcast
12:19 PM 32.0 °F 22.5 °F 24.8 °F 75% 29.94 in 10.0 mi NNW 12.7 mph - N/A   Overcast
12:37 PM 32.0 °F 21.6 °F 24.8 °F 75% 29.94 in 10.0 mi NNW 15.0 mph - N/A   Overcast
12:56 PM 32.0 °F 22.5 °F 24.8 °F 75% 29.94 in 10.0 mi NW 12.7 mph 18.4 mph N/A   Overcast
1:15 PM 32.0 °F 21.6 °F 24.8 °F 75% 29.94 in 10.0 mi NW 15.0 mph - N/A   Overcast
1:16 PM 32.0 °F 21.2 °F 24.8 °F 75% 29.94 in 10.0 mi NW 16.1 mph - N/A   Overcast
1:35 PM 30.2 °F 20.2 °F 24.8 °F 80% 29.93 in 10.0 mi NNW 12.7 mph - N/A   Overcast
1:36 PM 30.2 °F 20.2 °F 24.8 °F 80% 29.93 in 10.0 mi NNW 12.7 mph - N/A   Overcast
1:58 PM 30.2 °F 19.8 °F 24.8 °F 80% 29.93 in 10.0 mi NW 13.8 mph 17.3 mph N/A   Overcast
2:16 PM 30.2 °F 20.2 °F 26.6 °F 86% 29.93 in 10.0 mi NNW 12.7 mph - N/A   Overcast
2:36 PM 30.2 °F 20.2 °F 26.6 °F 86% 29.93 in 10.0 mi NW 12.7 mph - N/A   Overcast
2:55 PM 30.2 °F 21.9 °F 26.6 °F 86% 29.92 in 10.0 mi NNW 9.2 mph - N/A   Overcast
2:56 PM 30.2 °F 20.8 °F 26.6 °F 86% 29.92 in 10.0 mi NNW 11.5 mph - N/A   Overcast
3:15 PM 30.2 °F 24.3 °F 26.6 °F 86% 29.92 in 10.0 mi NNW 5.8 mph - N/A   Overcast
3:19 PM 30.2 °F 20.8 °F 26.6 °F 86% 29.92 in 10.0 mi NNW 11.5 mph - N/A   Overcast
3:37 PM 30.2 °F 22.6 °F 26.6 °F 86% 29.92 in 10.0 mi NNW 8.1 mph - N/A   Overcast
3:56 PM 30.2 °F 26.7 °F 26.6 °F 86% 29.91 in 10.0 mi NNW 3.5 mph - N/A   Overcast
4:15 PM 30.2 °F - 26.6 °F 86% 29.90 in 10.0 mi Calm Calm - N/A   Overcast
4:16 PM 30.2 °F - 26.6 °F 86% 29.90 in 10.0 mi Calm Calm - N/A   Overcast
4:35 PM 30.2 °F - 26.6 °F 86% 29.89 in 10.0 mi Calm Calm - N/A   Overcast
4:57 PM 30.2 °F - 26.6 °F 86% 29.89 in 10.0 mi Calm Calm - N/A   Overcast
5:15 PM 30.2 °F - 26.6 °F 86% 29.89 in 10.0 mi Calm Calm - N/A   Overcast
5:35 PM 30.2 °F - 26.6 °F 86% 29.88 in 10.0 mi Calm Calm - N/A   Overcast
5:36 PM 30.2 °F - 26.6 °F 86% 29.88 in 10.0 mi Calm Calm - N/A   Overcast
5:55 PM 30.2 °F - 26.6 °F 86% 29.89 in 10.0 mi Calm Calm - N/A   Overcast
5:59 PM 30.2 °F - 26.6 °F 86% 29.89 in 10.0 mi Calm Calm - N/A   Overcast
6:17 PM 30.2 °F 26.7 °F 26.6 °F 86% 29.88 in 10.0 mi South 3.5 mph - N/A   Overcast
6:36 PM 30.2 °F - 26.6 °F 86% 29.88 in 10.0 mi Calm Calm - N/A   Overcast
6:55 PM 30.2 °F - 26.6 °F 86% 29.88 in 10.0 mi Calm Calm - N/A   Overcast
6:56 PM 30.2 °F 26.7 °F 26.6 °F 86% 29.88 in 10.0 mi South 3.5 mph - N/A   Overcast
7:15 PM 30.2 °F 26.7 °F 26.6 °F 86% 29.87 in 10.0 mi South 3.5 mph - N/A   Overcast
7:19 PM 30.2 °F 26.7 °F 26.6 °F 86% 29.87 in 10.0 mi South 3.5 mph - N/A   Overcast
7:38 PM 30.2 °F 25.4 °F 26.6 °F 86% 29.86 in 10.0 mi SSE 4.6 mph - N/A   Overcast
8:15 PM 30.2 °F 25.4 °F 26.6 °F 86% 29.84 in 10.0 mi SSE 4.6 mph - N/A   Overcast
8:16 PM 30.2 °F 25.4 °F 26.6 °F 86% 29.84 in 10.0 mi SSE 4.6 mph - N/A   Overcast
8:35 PM 30.2 °F - 26.6 °F 86% 29.85 in 10.0 mi Calm Calm - N/A   Overcast
8:36 PM 30.2 °F - 26.6 °F 86% 29.85 in 10.0 mi Calm Calm - N/A   Overcast
8:58 PM 30.2 °F 26.7 °F 26.6 °F 86% 29.84 in 10.0 mi SSE 3.5 mph - N/A   Overcast
9:16 PM 30.2 °F 25.4 °F 26.6 °F 86% 29.83 in 10.0 mi SSE 4.6 mph - N/A   Overcast
9:35 PM 30.2 °F 24.3 °F 26.6 °F 86% 29.82 in 10.0 mi SSE 5.8 mph - N/A   Overcast
9:36 PM 30.2 °F 24.3 °F 26.6 °F 86% 29.82 in 10.0 mi SSE 5.8 mph - N/A   Overcast
9:55 PM 30.2 °F 24.3 °F 26.6 °F 86% 29.82 in 10.0 mi SSE 5.8 mph - N/A   Overcast
9:56 PM 30.2 °F 25.4 °F 26.6 °F 86% 29.82 in 10.0 mi SSE 4.6 mph - N/A   Overcast
10:19 PM 30.2 °F 24.3 °F 28.4 °F 93% 29.81 in 10.0 mi SSE 5.8 mph - N/A   Overcast
10:36 PM 30.2 °F 23.4 °F 28.4 °F 93% 29.80 in 10.0 mi SSE 6.9 mph - N/A   Overcast
10:56 PM 30.2 °F 23.4 °F 26.6 °F 86% 29.79 in 10.0 mi SSE 6.9 mph - N/A   Overcast
11:15 PM 30.2 °F 23.4 °F 28.4 °F 93% 29.79 in 10.0 mi SSE 6.9 mph - N/A   Overcast
11:16 PM 30.2 °F 24.3 °F 28.4 °F 93% 29.79 in 10.0 mi SSE 5.8 mph - N/A   Overcast
11:35 PM 30.2 °F 23.4 °F 28.4 °F 93% 29.78 in 10.0 mi SE 6.9 mph - N/A   Overcast
11:39 PM 30.2 °F 23.4 °F 28.4 °F 93% 29.78 in 10.0 mi SE 6.9 mph - N/A   Overcast
11:57 PM 30.2 °F 22.6 °F 28.4 °F 93% 29.77 in 10.0 mi SE 8.1 mph - N/A   Overcast